www.pogodaiklimat.ru

Погода и климат >> Архив погоды >> Канада >> Peterborough Arpt


ПОГОДА в Peterborough Arpt

  • Прогноз погоды в Peterborough Arpt
  • Монитор погоды в Peterborough Arpt
  • Климат города

АРХИВ ПОГОДЫ в Peterborough Arpt

Время (UTC), дата Ветер
(напр.,м/с)
 
Видим.   Явления Облачность Т
(С)
Тd
(С)
f
(%)
Тe
(С)
Тes
(С)
Комфортность P
(гПа)
Po
(гПа)
Тmin
(С)
Tmax
(С)
R
(мм)
R24
(мм)
S
(см)
18 10.12 ЮВ 12 н/о {осадки} н/о -13.0 -14.3 90 -25 -25 997.3 996.0 -18.9 -13.0 1
21 10.12 ЮВ 13 н/о н/о -13.0 -14.3 90 -26 -26 992.9 991.6
00 11.12 ЮВ 16 н/о {осадки} н/о -12.2 -13.4 91 -25 -25 988.4 987.1 -17.2 -12.2 0.2
03 11.12 Ю 8 н/о н/о -11.7 -12.8 92 -22 -22 984.7 983.4
06 11.12 Ю 6 н/о н/о -10.9 -12.0 92 -20 -20 982.5 981.2 -17.2 -10.8 22
09 11.12 ЮВ 3 н/о н/о -10.9 -12.0 92 -16 -16 981.6 980.3
12 11.12 Ю 2 н/о н/о -10.7 -11.7 92 -15 -15 980.7 979.4 -12.2 -10.8 6
15 11.12 З 1 н/о {осадки} н/о -10.8 -11.9 92 -11 -11 979.7 978.4 1
18 11.12 Ю 1 н/о {осадки} н/о -11.0 -12.0 92 -13 -13 979.4 978.1 -13.2 -10.2 2
21 11.12 З 5 н/о н/о -11.2 -12.4 91 -19 -19 979.9 978.6 0.2
00 12.12 З 8 н/о н/о -13.7 -15.0 90 -24 -24 981.6 980.3 -13.9 -10.2 0.2
03 12.12 ЮЗ 7 н/о н/о -19.7 -21.6 85 -31 -31 опасность
обморожения
985.6 984.3
06 12.12 З 10 н/о н/о -23.8 -26.2 81 -39 -39 опасность
обморожения
987.5 986.2 -23.9 -10.2 1
09 12.12 З 6 н/о н/о -27.7 -30.5 77 -41 -41 опасность
обморожения
991.9 990.6
12 12.12 З 4 н/о н/о -29.8 -32.7 76 -40 -40 опасность
обморожения
993.7 992.4 -29.8 -10.2 6
18 12.12 ЮЗ 10 н/о н/о -29.7 -32.7 75 -46 -46 опасность
обморожения
995.3 993.9
03 13.12 З 8 н/о н/о -27.3 -30.0 78 -42 -42 опасность
обморожения
996.4
06 13.12 З 1 н/о н/о -27.7 -30.4 78 -29 -29 999.6 998.2
15 13.12 С 2 н/о н/о -30.0 -33.1 74 -38 -38 опасность
обморожения
1004.3 1002.9
18 13.12 С 4 н/о н/о -28.1 -30.9 77 -38 -38 опасность
обморожения
1004.9 1003.5
21 13.12 С 6 н/о н/о -26.5 -29.1 79 -39 -39 опасность
обморожения
1004.7
00 14.12 С 8 н/о н/о -26.7 -29.4 78 -41 -41 опасность
обморожения
1005.3 -26.2
03 14.12 С 9 н/о н/о -27.0 -29.7 78 -42 -42 опасность
обморожения
1006.4 1005.0
06 14.12 С 9 н/о н/о -26.6 -29.2 79 -42 -42 опасность
обморожения
1006.5 1005.1
09 14.12 н/о н/о -26.5 -29.2 78 1006.0 1004.6
12 14.12 С 11 н/о н/о -24.9 -27.4 80 -41 -41 опасность
обморожения
1004.9 1003.5 -27.5 6
18 14.12 СВ 12 н/о н/о -21.8 -23.9 83 -37 -37 опасность
обморожения
1002.9 1001.5
21 14.12 С 13 н/о н/о -20.6 -22.6 84 -36 -36 опасность
обморожения
1002.6 1001.2
00 15.12 С 10 н/о н/о -19.8 -21.7 85 -33 -33 опасность
обморожения
1003.1 1001.7
03 15.12 С 10 н/о н/о -19.5 -21.3 86 -33 -33 опасность
обморожения
1002.6 1001.3
06 15.12 С 11 н/о н/о -19.2 -21.1 85 -33 -33 опасность
обморожения
1002.6 1001.3 21
09 15.12 С 11 н/о н/о -20.2 -22.2 84 -35 -35 опасность
обморожения
1003.3 1002.0
12 15.12 С 10 н/о н/о -21.3 -23.4 83 -35 -35 опасность
обморожения
1003.6 1002.3 -21.3 6
15 15.12 С 10 н/о н/о -21.6 -23.7 83 -36 -36 опасность
обморожения
1003.8 1002.5
18 15.12 С 10 н/о н/о -22.1 -24.3 82 -36 -36 опасность
обморожения
1004.4 1003.1 -22.4 -19.1
21 15.12 С 8 н/о н/о -21.2 -23.3 83 -34 -34 опасность
обморожения
1005.8 1004.4
00 16.12 н/о н/о -22.0 -24.1 83 1006.3 1004.9 -22.4 -20.7
03 16.12 С 9 н/о н/о -21.9 -24.1 82 -36 -36 опасность
обморожения
1007.4 1006.0
06 16.12 н/о н/о -21.4 -23.5 83 1008.5 1007.1 -22.5 -19.1 8
09 16.12 С 7 н/о н/о -21.3 -23.5 82 -33 -33 опасность
обморожения
1009.8 1008.4
12 16.12 С 6 н/о н/о -22.5 -24.7 82 -34 -34 опасность
обморожения
1010.9 1009.5 -22.5 -19.1 10
15 16.12 н/о н/о -21.0 -23.1 83 1011.8 1010.4
18 16.12 С 5 н/о н/о -22.5 -24.8 81 -33 -33 опасность
обморожения
1012.9 1011.5 -22.6 -20.7
21 16.12 СЗ 1 н/о н/о -22.5 -24.7 82 -23 -23 1014.0 1012.6
00 17.12 ЮЗ 2 н/о н/о -24.7 -27.2 80 -30 -30 1015.1 1013.7 -24.9 -20.7
03 17.12 З 5 н/о н/о -24.5 -26.9 80 -35 -35 опасность
обморожения
1015.3 1013.9
06 17.12 ЮЗ 2 н/о н/о -26.4 -29.2 77 -32 -32 опасность
обморожения
1015.3 1013.9 -26.4 -20.7 7
09 17.12 З 6 н/о н/о -24.0 -26.4 80 -36 -36 опасность
обморожения
1015.6 1014.2
12 17.12 З 7 н/о н/о -24.6 -27.1 80 -37 -37 опасность
обморожения
1015.9 1014.5 -26.5 -20.7 10
15 17.12 З 6 н/о н/о -24.2 -26.7 80 -36 -36 опасность
обморожения
1015.3 1013.9

 

Местоположение метеостанции Peterborough Arpt (Канада): широта 44.23 долгота -78.36 высота над уровнем моря 191 м.

В архиве по умолчанию представлена погода в Peterborough Arpt за последнюю неделю. Архивные данные за месяц целиком и за предыдущие месяцы, начиная с января 2011 года, Вы можете получить, выбрав интересующий диапазон дат из раскрывающегося списка и нажав кнопку "Ввод!".


*Определитесь, кто Вы:
робот инопланетянин человек

Внимание! Время в таблицах - всемирное. Для получения местного времени необходимо прибавить поправку, которая в Peterborough Arpt равна -5 ч.

Смотрите также архив погоды в соседних городах и на ближайших метеорологических станциях:

Погода в Peterborough Trent (Канада) (14 км)
Погода в Cobourg (Канада) (35 км)
Погода в Oshawa (Канада) (54 км)
Погода в Trenton (Канада) (67 км)
Погода в Lagoon City (Канада) (75 км)
Погода в Toronto Buttonville (Канада) (89 км)
Погода в Buttonville (Канада) (89 км)
Погода в Barrie-oro (Канада) (98 км)
Погода в Toronto Aes Hq (Канада) (101 км)
Погода в Bancroft Auto (Канада) (101 км)

Пояснения к столбцам:

Ветер - указаны скорость ветра в м/с - средняя за 10 мин, порывы в срок и между сроками (в фигурных скобках) и направление, откуда дует ветер: С - северный, СВ - северо-восточный, В - восточный, ЮВ - юго-восточный, Ю - южный, ЮЗ - юго-западный, З - западный, СЗ - северо-западный.
Видимость - горизонтальная дальность видимости в метрах или километрах. При видимости от 1 до 10 км при отсутствии осадков обычно наблюдается дымка, при ухудшении видимости до 1 км и менее - туман. В сухую погоду видимость может ухудшаться дымом, пылью или мглою.
Явления - указаны атмосферные явления, наблюдавшиеся в срок или в последний час перед сроком; фигурными скобками обозначены явления, наблюдавшиеся между сроками (за 1-3 часа до срока); квадратными скобками обозначены град или гололедные отложения с указанием их диаметра в мм.
Облачность - указаны через наклонную черту общая и нижняя облачность в баллах и высота нижней границы облаков в метрах; квадратными скобками обозначены формы облаков: Ci - перистые, Cs - перисто-слоистые, Cc - перисто-кучевые, Ac - высококучевые, As - высокослоистые, Sc - слоисто-кучевые, Ns - слоисто-дождевые, Cu - кучевые, Cb - кучево-дождевые. Подробнее классификацию облаков см. в Атласе облаков (PDF).
T - Температура воздуха - температура, измеренная на высоте 2 м над землей.
Td - Температура точки росы - температура, при понижении до которой содержащийся в воздухе водяной пар достигнет насыщения.
f - Относительная влажность воздуха - влажноcть воздуха, измеренная на высоте 2 м над землей.
Te - Эффективная температура - температура, которую ощущает одетый по сезону человек в тени. Характеристика душности погоды. При расчете учитывается влияние влажности воздуха и скорости ветра на теплоощущения человека.
Tes - Эффективная температура на солнце - температура, которую ощущает человек, с поправкой на солнечный нагрев. Характеристика знойности погоды. Зависит от высоты солнца над горизонтом, облачности и скорости ветра. Ночью, в пасмурную погоду, а также при ветре 12 м/с и более поправка равна нулю.
P - Атмосферное давление - приведенное к уровню моря атмосферное давление.
Po - Атмосферное давление - измеренное на уровне метеостанции атмосферное давление.
Tmin - Минимальная температура - минимум температуры воздуха на высоте 2 м над землей.
Tmax - Максимальная температура - максимум температуры воздуха на высоте 2 м над землей.
R - Количество осадков - Количество выпавших осадков за период времени, мм. При наведении курсора мыши на число - период времени, за который выпало указанное количество осадков.
R24 - Количество осадков - Количество выпавших осадков за 24 часа, мм.
S - Снежный покров - Высота снежного покрова, см. При наведении курсора мыши на число - состояние снежного покрова и степень покрытия местности в баллах.